Flag for U.S.A. Weather past 2 weeks in San Luis Obispo, California, U.S.A.

Now
69 °F

Sunny.


Feels Like: 69 °F
Forecast: 50 / 76 °F
Wind: 12 mph from South

Location: San Luis Obispo County-Mc Chesney Field

Current Time: May 29, 2015 at 2:40:58 PM

Latest Report: May 29, 2015 at 1:56 PM


Visibility: 10 mi

Pressure: 29.93 "Hg

Humidity: 55%

Dew point: 52 °F

Location of San Luis ObispoLocation

Historic Weather in San Luis Obispo — Graph

°F

San Luis Obispo temperature yesterday

Maximum temperature yesterday: 72 °F (at 12:56 PM)
Minimum temperature yesterday: 53 °F (at 12:56 AM)
Average temperature yesterday: 59 °F

Past Weeks' High & Low Weather Summary

 TemperatureHumidityPressure
High74 °F (May 29, 12:56 PM)97% (May 15, 12:56 AM)30.12 "Hg (May 15, 12:56 AM)
Low44 °F (May 16, 4:56 AM)42% (May 16, 11:56 AM)29.82 "Hg (May 14, 5:56 PM)
Average58 °F73%30.00 "Hg
* Reported May 14 12:56 PM — May 29 12:56 PM, San Luis Obispo, Weather by CustomWeather, © 2015

Note: Actual official high and low records may vary slightly from our data, if they occured in-between our weather recording intervals... More about our weather records

Advertising

San Luis Obispo weather history for previous 24 hours

 ConditionsComfort  
Time TempWeatherWind HumidityBarometerVisibility
12:56 PM
Fri, May 29
74 °FSunny.3 mph48%29.94 "Hg10 mi
11:56 AM70 °FSunny.6 mph53%29.96 "Hg10 mi
10:56 AM63 °FPassing clouds.6 mph68%29.98 "Hg10 mi
9:56 AM57 °FOvercast.No wind81%29.98 "Hg10 mi
8:56 AM54 °FLow clouds.3 mph90%29.98 "Hg10 mi
7:56 AM53 °FLow clouds.5 mph93%29.98 "Hg9 mi
6:56 AM52 °FFog.No wind97%29.97 "Hg5 mi
5:56 AM52 °FFog.5 mph97%29.97 "Hg6 mi
4:56 AM53 °FLow clouds.3 mph93%29.95 "Hg10 mi
3:56 AM53 °FLow clouds.3 mph89%29.94 "Hg10 mi
2:56 AM53 °FLow clouds.6 mph89%29.96 "Hg10 mi
1:56 AM53 °FLow clouds.6 mph89%29.96 "Hg10 mi
12:56 AM53 °FLow clouds.3 mph93%29.97 "Hg10 mi
11:56 PM
Thu, May 28
53 °FLow clouds.5 mph93%29.98 "Hg10 mi
10:56 PM53 °FLow clouds.8 mph93%29.98 "Hg10 mi
9:56 PM53 °FPassing clouds.9 mph93%29.98 "Hg10 mi
8:56 PM53 °FSunny.10 mph89%29.97 "Hg10 mi
7:56 PM55 °FSunny.15 mph83%29.96 "Hg10 mi
6:56 PM60 °FSunny.16 mph72%29.94 "Hg10 mi
5:56 PM65 °FSunny.15 mph61%29.93 "Hg10 mi
4:56 PM68 °FSunny.15 mph55%29.93 "Hg10 mi
3:56 PM68 °FSunny.21 mph55%29.94 "Hg10 mi
2:56 PM69 °FSunny.20 mph55%29.95 "Hg10 mi
Weather by CustomWeather, © 2015

See weather overviewHow to use our weather pages